Location: Northcutt
(34.7304°N, 84.4305°W)
Time: 11:51:00
(UTC+00:00)

Altair - Visible Passes

Search period start: 05 October 2022 00:00
Search period end: 15 October 2022 00:00
Orbit: 1501 x 1682 km, 47.2° (Epoch: 05 October)

Date Brightness Start Highest point End Pass type
(mag) Time Alt. Az. Time Alt. Az. Time Alt. Az.
05 Oct 8.8 07:41:18 28° ESE 07:41:18 28° ESE 07:47:57 10° ENE visible
05 Oct 7.5 09:39:20 37° WSW 09:43:56 86° NW 09:53:58 10° NE visible
06 Oct 9.1 07:17:51 23° E 07:17:51 23° E 07:22:28 10° ENE visible
06 Oct 7.4 09:15:54 53° SW 09:18:43 88° SE 09:28:43 10° NE visible
07 Oct 9.4 06:54:22 17° E 06:54:22 17° E 06:56:55 10° ENE visible
07 Oct 7.3 08:52:24 73° SSW 08:53:31 83° SE 09:03:28 10° NE visible
07 Oct 8.1 10:50:26 12° W 10:59:07 47° NNW 11:08:43 10° NE visible
08 Oct 9.7 06:30:48 11° E 06:30:48 11° E 06:31:18 10° E visible
08 Oct 7.5 08:28:51 76° ESE 08:28:51 76° ESE 08:38:13 10° ENE visible
08 Oct 8.0 10:26:53 19° W 10:33:47 49° NNW 10:43:25 10° NE visible
09 Oct 7.9 08:05:14 58° E 08:05:14 58° E 08:12:57 10° ENE visible
09 Oct 7.9 10:03:16 28° W 10:08:28 51° NNW 10:18:07 10° NE visible
10 Oct 8.3 07:41:36 42° ENE 07:41:36 42° ENE 07:47:40 10° ENE visible
10 Oct 7.8 09:39:37 38° WNW 09:43:09 53° NNW 09:52:51 10° NE visible
11 Oct 8.8 07:17:55 31° ENE 07:17:55 31° ENE 07:22:24 10° ENE visible
11 Oct 7.7 09:15:56 49° WNW 09:17:51 55° NNW 09:27:34 10° NE visible
12 Oct 9.2 06:54:12 22° ENE 06:54:12 22° ENE 06:57:07 10° ENE visible
12 Oct 7.6 08:52:14 58° NNW 08:52:34 58° NNW 09:02:18 10° NE visible
12 Oct 8.4 10:50:15 10° WNW 10:59:09 40° N 11:08:25 10° ENE visible
13 Oct 9.5 06:30:28 15° ENE 06:30:28 15° ENE 06:31:49 10° ENE visible
13 Oct 7.8 08:28:29 57° N 08:28:29 57° N 08:37:02 10° NE visible
13 Oct 8.4 10:26:31 16° WNW 10:33:46 40° N 10:43:01 10° ENE visible
14 Oct 8.1 08:04:44 49° NNE 08:04:44 49° NNE 08:11:47 10° NE visible
14 Oct 8.3 10:02:45 22° WNW 10:08:24 40° N 10:17:38 10° ENE visible
